GW5673 Weather Reports


time (UTC)temp
C
wind
direction
speed
KPH
gust
KPH
rain 1hr
cm
rain 24hr
cm
rain mn
cm
humidity
%
barometer
mb
20260504034502 6 349 0.0 3.2 0.00 0.00 0.00 82 1014.9
20260504033623 6 349 0.0 3.2 0.00 0.00 0.00 79 1014.9
20260504032702 6 349 0.0 1.6 0.00 0.00 0.00 79 1014.9
20260504031803 6 349 0.0 1.6 0.00 0.00 0.00 78 1014.7
20260504030902 6 349 0.0 1.6 0.00 0.00 0.00 75 1014.8
20260504030002 6 349 0.0 3.2 0.00 0.00 0.00 75 1014.8
20260504025402 6 349 0.0 3.2 0.00 0.00 0.00 75 1014.7
20260504024502 6 349 0.0 3.2 0.00 0.00 0.00 72 1014.3
20260504023602 6 0 0.0 0.0 0.00 0.00 0.00 67 1014.4
20260504022724 6 349 0.0 3.2 0.00 0.00 0.00 66 1014.3
20260504021823 6 349 1.6 3.2 0.00 0.00 0.00 66 1014.3
20260504020923 6 349 1.6 3.2 0.00 0.00 0.00 70 1014.1
20260504020024 6 354 3.2 4.8 0.00 0.00 0.00 67 1014.1
20260504015402 7 359 3.2 4.8 0.00 0.00 0.00 67 1014.0
20260504014503 7 344 1.6 3.2 0.00 0.00 0.00 64 1014.0
20260504013623 7 325 3.2 4.8 0.00 0.00 0.00 63 1013.9
20260504012724 7 298 3.2 4.8 0.00 0.00 0.00 62 1013.9
20260504011802 8 288 1.6 3.2 0.00 0.00 0.00 60 1013.9
20260504010903 8 303 3.2 3.2 0.00 0.00 0.00 59 1013.6
20260504010024 9 302 1.6 3.2 0.00 0.00 0.00 57 1013.6
20260504005402 10 293 1.6 3.2 0.00 0.00 0.00 56 1013.7
20260504004502 10 298 1.6 3.2 0.00 0.00 0.00 52 1013.9
20260504003602 11 317 0.0 3.2 0.00 0.00 0.00 50 1013.6
20260504002702 11 317 1.6 3.2 0.00 0.00 0.00 49 1013.3
20260504001802 12 308 1.6 3.2 0.00 0.00 0.00 47 1013.4
20260504000902 13 310 1.6 4.8 0.00 0.00 0.00 45 1013.4
20260504000024 13 310 3.2 6.4 0.00 0.00 0.00 38 1013.2
20260503235402 14 316 1.6 6.4 0.00 0.00 0.00 35 1013.2
20260503234503 15 359 3.2 6.4 0.00 0.00 0.00 34 1013.2
20260503233602 15 40 4.8 8.0 0.00 0.00 0.00 30 1013.2
20260503232702 15 31 4.8 8.0 0.00 0.00 0.00 28 1013.2
20260503231823 16 17 3.2 6.4 0.00 0.00 0.00 30 1013.0
20260503230902 16 6 3.2 6.4 0.00 0.00 0.00 25 1013.0
20260503230002 16 353 3.2 6.4 0.00 0.00 0.00 25 1012.9
20260503225402 16 6 4.8 12.9 0.00 0.00 0.00 25 1012.9
20260503224502 16 359 6.4 11.3 0.00 0.00 0.00 28 1012.8
20260503223602 16 23 4.8 9.7 0.00 0.00 0.00 26 1012.9
20260503222723 16 17 6.4 11.3 0.00 0.00 0.00 26 1012.9
20260503221823 16 311 6.4 16.1 0.00 0.00 0.00 26 1012.8
20260503220902 17 322 4.8 12.9 0.00 0.00 0.00 26 1013.1
20260503220003 17 319 4.8 11.3 0.00 0.00 0.00 27 1013.1
20260503215403 17 293 6.4 12.9 0.00 0.00 0.00 26 1013.1
20260503214502 17 319 6.4 14.5 0.00 0.00 0.00 27 1013.1
20260503213603 17 222 1.6 6.4 0.00 0.00 0.00 25 1013.1
20260503212724 17 308 4.8 12.9 0.00 0.00 0.00 27 1013.2
20260503211802 17 169 3.2 8.0 0.00 0.00 0.00 26 1013.1
20260503210902 17 189 6.4 16.1 0.00 0.00 0.00 27 1013.2
20260503210002 16 261 11.3 27.4 0.00 0.00 0.00 30 1013.3
20260503205402 16 268 6.4 27.4 0.00 0.00 0.00 27 1013.4
20260503204503 16 249 1.6 6.4 0.00 0.00 0.00 26 1013.4
20260503203624 16 12 3.2 9.7 0.00 0.00 0.00 27 1013.3
20260503202702 16 316 6.4 16.1 0.00 0.00 0.00 27 1013.6
20260503201802 16 331 6.4 16.1 0.00 0.00 0.00 30 1013.6
20260503200902 16 283 8.0 16.1 0.00 0.00 0.00 29 1014.1
20260503200002 15 335 6.4 16.1 0.00 0.00 0.00 29 1014.1
20260503195402 16 304 6.4 16.1 0.00 0.00 0.00 28 1014.1
20260503194502 15 282 12.9 22.5 0.00 0.00 0.00 32 1014.2
20260503193602 15 289 16.1 30.6 0.00 0.00 0.00 29 1014.3
20260503192703 15 335 9.7 22.5 0.00 0.00 0.00 31 1014.3
20260503191802 15 317 11.3 22.5 0.00 0.00 0.00 31 1014.5
20260503190924 15 289 11.3 27.4 0.00 0.00 0.00 33 1014.6
20260503190003 15 301 9.7 27.4 0.00 0.00 0.00 34 1014.7
20260503185403 15 261 6.4 14.5 0.00 0.00 0.00 36 1014.8
20260503184502 15 284 4.8 14.5 0.00 0.00 0.00 31 1014.9
20260503183603 15 272 8.0 17.7 0.00 0.00 0.00 32 1015.2
20260503182723 14 235 8.0 24.1 0.00 0.00 0.00 31 1015.3
20260503181823 14 296 9.7 19.3 0.00 0.00 0.00 34 1015.3
20260503180902 13 283 6.4 19.3 0.00 0.00 0.00 38 1015.4
20260503180002 13 306 8.0 20.9 0.00 0.00 0.00 37 1015.4
20260503175403 13 280 12.9 27.4 0.00 0.00 0.00 35 1015.5
20260503174502 13 286 11.3 27.4 0.00 0.00 0.00 34 1015.6
20260503173603 13 275 14.5 29.0 0.00 0.00 0.00 32 1015.7
20260503172702 13 268 14.5 25.7 0.00 0.00 0.00 33 1015.8
20260503171803 13 306 12.9 29.0 0.00 0.00 0.00 39 1015.9
20260503170902 13 307 14.5 27.4 0.00 0.00 0.00 36 1016.2
20260503150902 10 296 11.3 29.0 0.00 0.00 0.00 44 1017.2
20260503130903 7 294 9.7 14.5 0.00 0.00 0.00 55 1017.1
20260503080903 6 347 6.4 14.5 0.00 0.00 0.00 66 1014.4
20260503072703 6 347 11.3 19.3 0.00 0.00 0.00 65 1014.2
20260503071803 6 350 11.3 16.1 0.00 0.00 0.00 65 1013.9
20260503070903 6 330 9.7 16.1 0.00 0.00 0.00 64 1013.8
20260503054503 5 294 1.6 4.8 0.00 0.00 0.00 69 1013.7
20260503053603 5 320 3.2 4.8 0.00 0.00 0.00 67 1013.5
20260503052703 6 338 3.2 4.8 0.00 0.00 0.00 66 1013.5
20260503051803 6 355 3.2 8.0 0.00 0.00 0.00 66 1013.5
20260503050903 6 4 4.8 11.3 0.00 0.00 0.00 64 1013.6
20260503050003 6 346 8.0 16.1 0.00 0.00 0.00 63 1013.6
20260503045403 7 347 8.0 16.1 0.00 0.00 0.00 62 1013.5
20260503044503 7 2 6.4 11.3 0.00 0.00 0.00 61 1013.6
20260503043603 7 360 4.8 9.7 0.00 0.00 0.00 61 1013.6
20260503042703 7 350 6.4 14.5 0.00 0.00 0.00 59 1013.7
20260503041803 7 347 8.0 16.1 0.00 0.00 0.00 59 1013.6
20260503040924 7 337 8.0 14.5 0.00 0.00 0.00 58 1013.6
20260503040003 8 327 9.7 17.7 0.00 0.00 0.00 57 1013.7
20260503035403 8 320 9.7 16.1 0.00 0.00 0.00 57 1013.6